Regional Weather Roundup
Issued by NWS

Home | Current Version | Previous Version | Text Only | Print | Product List | Glossary On
Versions: 1 2 3 4 5 6 7 8 9 10 11 12 13 14 15 16 17 18 19 20 21 22 23 24 25 26 27 28 29 30 31 32 33 34 35 36 37 38 39 40 41 42 43 44 45 46 47 48 49 50
000
ASPQ40 PGUM 170012
RWRPQ
WEATHER ROUNDUP FOR THE MARIANAS AND MICRONESIA
NATIONAL WEATHER SERVICE TIYAN GU
1000 AM CHST TUE OCT 17 2017

GUZ001>004-170100-
MARIANA ISLANDS-

CITY           SKY/WX    TMP DP  RH WIND       PRES   REMARKS
GUAM AIRPORT   MOSUNNY   84  79  84 S6        29.72S HX  96
ANDERSEN AFB   NOT AVBL
ROTA AIRPORT   NOT AVBL
TINIAN AP      MOSUNNY   84  75  74 SE14      29.72F HX  92
SAIPAN AP      PTSUNNY   84  79  84 SE14      29.73F HX  96

$$

PMZ161-170100-
REPUBLIC OF PALAU-

CITY           SKY/WX    TMP DP  RH WIND       PRES   REMARKS
KOROR AP       CLOUDY    77  75  94 SW13G20   29.62R
KOROR WSO      NOT AVBL

$$

PMZ171>174-170100-
FEDERATED STATES OF MICRONESIA-

CITY           SKY/WX    TMP DP  RH WIND       PRES   REMARKS
YAP AIRPORT    CLOUDY    81  77  89 SE16      29.72S
CHUUK AP       CLOUDY    84  79  84 SW7       29.74F HX  96
POHNPEI AP     CLOUDY    88  79  74 E10       29.74S HX 102
POHNPEI WSO    NOT AVBL
KOSRAE AP      CLOUDY    82  79  89 S3        29.74R HX  93

$$

PMZ181-170100-
REPUBLIC OF THE MARSHALL ISLANDS-

CITY           SKY/WX    TMP DP  RH WIND       PRES   REMARKS
KWAJALEIN AP   NOT AVBL
MAJURO AP      LGT RAIN  79  77  94 S9        29.78F
MAJURO WSO     LGT RAIN  79  73  83 S7        29.75F

$$




USA.gov is the U.S. government's official web portal to all federal, state and local government web resources and services.